Weather History for South Hill, VA

Change the Weather History Date:

Monday, August 12, 2013

  Actual Average (KEMV) Record (KEMV)
Temperature  
Mean Temperature 82 °F -  
Max Temperature 91 °F 88 °F 100 °F (1983)
Min Temperature 73 °F 65 °F 53 °F (2008)
Cooling Degree Days 17    
Growing Degree Days 32 (Base 50)    
Moisture  
Dew Point 76 °F    
Average Humidity 84    
Maximum Humidity 100    
Minimum Humidity 55    
Precipitation  
Precipitation 0.00 in - - ()
Sea Level Pressure  
Sea Level Pressure 30.05 in    
Wind  
Wind Speed 1 mph (North)    
Max Wind Speed 5 mph    
Max Gust Speed -    
Visibility 8 miles    
Events Fog    
Averages and records for this station are not official NWS values.
T = Trace of Precipitation, MM = Missing Value Source: NWS Daily Summary

Daily Weather History Graph

Daily Weather History Graph

Search for Another Location

Airport:

Trip Planner

Search our weather history database for the weather conditions in past years. The results will help you decide how hot, cold, wet, or windy it might be!

Date:

Astronomy

Aug. 12, 2013 Rise Set
Actual Time 6:27 AM EDT 8:06 PM EDT
Civil Twilight 5:59 AM EDT 8:34 PM EDT
Nautical Twilight 5:26 AM EDT 9:07 PM EDT
Astronomical Twilight 4:50 AM EDT 9:42 PM EDT
Moon 12:05 PM EDT (8/12) 11:09 PM EDT (8/12)
Length of Visible Light 14h 34m
Length of Day
13h 39m
Waxing Crescent, 31% of the Moon is Illuminated
Aug 12
Waxing Crescent
Aug 14
First Quarter
Aug 20
Full
Aug 28
Last Quarter
Sep 5
New

Hourly Weather History & Observations

Time (EDT) Temp. Heat Index Dew Point Humidity Pressure Visibility Wind Dir Wind Speed Gust Speed Precip Events Conditions
3:15 AM 75.2 °F - 75.2 °F 100% 30.07 in 4.0 mi Calm Calm - N/A   Clear
3:35 AM 75.2 °F - 75.2 °F 100% 30.07 in 5.0 mi Calm Calm - N/A   Clear
3:55 AM 75.2 °F - 75.2 °F 100% 30.07 in 7.0 mi SSE 3.5 mph - N/A   Clear
4:15 AM 75.2 °F - 75.2 °F 100% 30.06 in 5.0 mi SSE 3.5 mph - N/A   Clear
4:35 AM 73.4 °F - 73.4 °F 100% 30.07 in 5.0 mi Calm Calm - N/A   Scattered Clouds
4:55 AM 75.2 °F - 75.2 °F 100% 30.07 in 7.0 mi Calm Calm - N/A   Overcast
5:15 AM 75.2 °F - 75.2 °F 100% 30.07 in 5.0 mi Calm Calm - N/A   Overcast
5:35 AM 75.2 °F - 75.2 °F 100% 30.07 in 0.5 mi Calm Calm - N/A Fog Fog
5:55 AM 75.2 °F - 75.2 °F 100% 30.07 in 0.2 mi Calm Calm - N/A Fog Fog
6:15 AM 75.2 °F - 75.2 °F 100% 30.07 in 0.2 mi Calm Calm - N/A Fog Fog
6:35 AM 75.2 °F - 75.2 °F 100% 30.07 in 4.0 mi Calm Calm - N/A   Overcast
6:55 AM 75.2 °F - 75.2 °F 100% 30.08 in 3.0 mi Calm Calm - N/A   Mostly Cloudy
7:15 AM 75.2 °F - 75.2 °F 100% 30.08 in 4.0 mi Calm Calm - N/A   Mostly Cloudy
7:35 AM 75.2 °F - 75.2 °F 100% 30.08 in 4.0 mi Calm Calm - N/A   Mostly Cloudy
7:55 AM 75.2 °F - 75.2 °F 100% 30.08 in 5.0 mi Calm Calm - N/A   Overcast
8:15 AM 75.2 °F - 75.2 °F 100% 30.08 in 7.0 mi Calm Calm - N/A   Overcast
8:35 AM 77.0 °F - 77.0 °F 100% 30.08 in 10.0 mi WNW 3.5 mph - N/A   Mostly Cloudy
8:55 AM 78.8 °F - 78.8 °F 100% 30.08 in 10.0 mi Calm Calm - N/A   Scattered Clouds
9:15 AM 80.6 °F 88.1 °F 78.8 °F 94% 30.08 in 10.0 mi NNW 3.5 mph - N/A   Scattered Clouds
9:35 AM 80.6 °F 88.1 °F 78.8 °F 94% 30.08 in 10.0 mi Calm Calm - N/A   Clear
9:55 AM 82.4 °F 90.9 °F 77.0 °F 84% 30.08 in 10.0 mi North 4.6 mph - N/A   Clear
10:15 AM 82.4 °F 90.9 °F 77.0 °F 84% 30.08 in 10.0 mi Calm Calm - N/A   Clear
10:35 AM 84.2 °F 96.1 °F 78.8 °F 84% 30.08 in 10.0 mi North 3.5 mph - N/A   Clear
10:55 AM 84.2 °F 96.1 °F 78.8 °F 84% 30.09 in 10.0 mi North 4.6 mph - N/A   Scattered Clouds
11:15 AM 86.0 °F 99.3 °F 78.8 °F 79% 30.09 in 10.0 mi NNW 3.5 mph - N/A   Scattered Clouds
11:35 AM 87.8 °F 99.7 °F 77.0 °F 70% 30.08 in 10.0 mi Calm Calm - N/A   Mostly Cloudy
11:55 AM 87.8 °F 99.7 °F 77.0 °F 70% 30.08 in 10.0 mi NE 3.5 mph - N/A   Scattered Clouds
12:15 PM 87.8 °F 97.6 °F 75.2 °F 66% 30.07 in 10.0 mi NNE 4.6 mph - N/A   Scattered Clouds
12:35 PM 86.0 °F 95.1 °F 75.2 °F 70% 30.07 in 10.0 mi NNE 3.5 mph - N/A   Scattered Clouds
12:55 PM 87.8 °F 97.6 °F 75.2 °F 66% 30.07 in 10.0 mi Calm Calm - N/A   Scattered Clouds
1:15 PM 89.6 °F 99.8 °F 75.2 °F 62% 30.07 in 10.0 mi North 4.6 mph - N/A   Scattered Clouds
1:35 PM 91.4 °F 102.5 °F 75.2 °F 59% 30.06 in 10.0 mi West 3.5 mph - N/A   Scattered Clouds
1:55 PM 89.6 °F 98.2 °F 73.4 °F 59% 30.06 in 10.0 mi Calm Calm - N/A   Scattered Clouds
2:15 PM 87.8 °F 97.6 °F 75.2 °F 66% 30.05 in 10.0 mi Calm Calm - N/A   Mostly Cloudy
2:35 PM 91.4 °F 102.5 °F 75.2 °F 59% 30.05 in 10.0 mi Calm Calm - N/A   Scattered Clouds
2:55 PM 89.6 °F 99.8 °F 75.2 °F 62% 30.05 in 10.0 mi Calm Calm - N/A   Scattered Clouds
3:15 PM 91.4 °F 100.1 °F 73.4 °F 55% 30.04 in 10.0 mi North 3.5 mph - N/A   Mostly Cloudy
3:35 PM 89.6 °F 99.8 °F 75.2 °F 62% 30.03 in 10.0 mi Calm Calm - N/A   Scattered Clouds
3:55 PM 91.4 °F 102.5 °F 75.2 °F 59% 30.03 in 10.0 mi North 4.6 mph - N/A   Scattered Clouds
4:15 PM 89.6 °F 98.2 °F 73.4 °F 59% 30.03 in 10.0 mi Calm Calm - N/A   Scattered Clouds
4:35 PM 89.6 °F 99.8 °F 75.2 °F 62% 30.02 in 10.0 mi NNE 3.5 mph - N/A   Mostly Cloudy
4:55 PM 89.6 °F 99.8 °F 75.2 °F 62% 30.02 in 10.0 mi NNE 3.5 mph - N/A   Scattered Clouds
5:15 PM 87.8 °F 97.6 °F 75.2 °F 66% 30.02 in 10.0 mi Calm Calm - N/A   Scattered Clouds
5:35 PM 87.8 °F 99.7 °F 77.0 °F 70% 30.01 in 10.0 mi Calm Calm - N/A   Scattered Clouds
5:55 PM 87.8 °F 99.7 °F 77.0 °F 70% 30.01 in 10.0 mi Calm Calm - N/A   Scattered Clouds
6:15 PM 87.8 °F 99.7 °F 77.0 °F 70% 30.02 in 10.0 mi Calm Calm - N/A   Overcast
6:35 PM 87.8 °F 99.7 °F 77.0 °F 70% 30.01 in 10.0 mi Calm Calm - N/A   Mostly Cloudy
6:55 PM 87.8 °F 97.6 °F 75.2 °F 66% 30.01 in 10.0 mi Calm Calm - N/A   Scattered Clouds
7:15 PM 87.8 °F 99.7 °F 77.0 °F 70% 30.01 in 10.0 mi Calm Calm - N/A   Clear
7:35 PM 84.2 °F 94.1 °F 77.0 °F 79% 30.01 in 10.0 mi Calm Calm - N/A   Clear
7:55 PM 82.4 °F 90.9 °F 77.0 °F 84% 30.01 in 10.0 mi Calm Calm - N/A   Clear
8:15 PM 80.6 °F 87.1 °F 77.0 °F 89% 30.01 in 10.0 mi Calm Calm - N/A   Clear
8:35 PM 80.6 °F 88.1 °F 78.8 °F 94% 30.01 in 10.0 mi Calm Calm - N/A   Clear
8:55 PM 78.8 °F - 78.8 °F 100% 30.01 in 10.0 mi Calm Calm - N/A   Clear
9:15 PM 78.8 °F - 78.8 °F 100% 30.01 in 10.0 mi Calm Calm - N/A   Clear
9:35 PM 78.8 °F - 78.8 °F 100% 30.02 in 10.0 mi Calm Calm - N/A   Clear
9:55 PM 78.8 °F - 78.8 °F 100% 30.02 in 10.0 mi Calm Calm - N/A   Clear
10:15 PM 77.0 °F - 77.0 °F 100% 30.02 in 1.0 mi Calm Calm - N/A   Clear
10:35 PM 77.0 °F - 77.0 °F 100% 30.02 in 7.0 mi Calm Calm - N/A   Clear
10:55 PM 77.0 °F - 77.0 °F 100% 30.00 in 7.0 mi Calm Calm - N/A   Clear
11:15 PM 78.8 °F - 78.8 °F 100% 30.00 in 10.0 mi Calm Calm - N/A   Clear
11:35 PM 77.0 °F - 77.0 °F 100% 30.00 in 10.0 mi Calm Calm - N/A   Clear
11:55 PM 77.0 °F - 77.0 °F 100% 30.00 in 7.0 mi Calm Calm - N/A   Clear